Location: Wingville
(42.9917°N, 90.4915°W)
Time: 09:37:34
(UTC+00:00)

Cosmos 1805 Rocket - Visible Passes

Search period start: 30 November 2022 00:00
Search period end: 10 December 2022 00:00
Orbit: 605 x 629 km, 82.5° (Epoch: 29 November)

Date Brightness Start Highest point End Pass type
(mag) Time Alt. Az. Time Alt. Az. Time Alt. Az.
03 Dec 5.8 23:58:15 10° NNE 23:58:19 10° NNE 23:58:19 10° NNE visible
04 Dec 6.5 12:31:41 10° ESE 12:34:08 15° E 12:36:35 10° NE visible
05 Dec 4.5 00:14:32 10° N 00:22:57 11° SSE 00:23:03 10° SSE visible
05 Dec 6.4 01:53:27 10° NW 01:59:41 - SW 01:54:30 14° WNW visible
05 Dec 5.9 12:46:59 10° SE 12:50:35 26° E 12:54:14 10° NNE visible
06 Dec 3.4 00:31:06 10° N 00:35:34 83° E 00:40:01 10° S visible
06 Dec 5.2 23:11:32 10° NNE 23:14:04 15° ENE 23:16:35 10° ESE visible
07 Dec 4.3 00:47:54 10° NNW 00:52:14 53° W 00:56:34 10° S visible
07 Dec 4.6 23:27:18 10° NNE 23:31:01 25° ENE 23:34:43 10° SE visible
08 Dec 5.5 01:04:57 10° NNW 01:08:49 29° W 01:12:40 10° SSW visible
08 Dec 6.6 12:00:44 10° ESE 12:03:10 15° E 12:05:37 10° NE visible
08 Dec 3.8 23:43:36 10° N 23:47:52 44° ENE 23:52:07 10° SSE visible
09 Dec 6.4 01:22:28 10° NW 01:25:18 17° W 01:28:08 10° SW visible
09 Dec 5.9 12:16:01 10° SE 12:19:38 26° E 12:23:17 10° NNE visible
